Flag for San Marino Weather past 2 weeks in San Marino, San Marino

Now
46 °F

Passing clouds.


Feels Like: 42 °F
Forecast: 24 / 36 °F
Wind: 8 mph from East

Location: Rimini Airport

Current Time: Jan 31, 2015 at 6:11:42 PM

Latest Report: Jan 31, 2015 at 5:45 PM


Visibility: N/A

Pressure: 29.12 "Hg

Humidity: 76%

Dew point: 39 °F

Location of San MarinoLocation

Historic Weather in San Marino — Graph

°F

San Marino temperature yesterday

Maximum temperature yesterday: 50 °F (at 6:45 AM)
Minimum temperature yesterday: 36 °F (at 12:45 PM)
Average temperature yesterday: 40 °F

Past Weeks' High & Low Weather Summary

 TemperatureHumidityPressure
High63 °F (Jan 17, 1:15 PM)100% (Jan 17, 10:15 PM)30.21 "Hg (Jan 17, 10:15 PM)
Low30 °F (Jan 31, 6:45 AM)42% (Jan 17, 2:15 PM)28.80 "Hg (Jan 30, 6:45 AM)
Average44 °F83%29.85 "Hg
* Reported Jan 16 4:15 PM — Jan 31 4:15 PM, San Marino, Weather by CustomWeather, © 2014

Note: Actual official high and low records may vary slightly from our data, if they occured in-between our weather recording intervals... More about our weather records

Advertising

San Marino weather history for previous 24 hours

 ConditionsComfort  
Time TempWeatherWind HumidityBarometerVisibility
4:15 PM
Jan 31
48 °FScattered clouds.8 mph71%29.12 "HgN/A
3:45 PM48 °FScattered clouds.10 mph76%29.12 "HgN/A
3:15 PM50 °FScattered clouds.9 mph71%29.12 "HgN/A
2:45 PM52 °FPassing clouds.8 mph62%29.12 "HgN/A
2:15 PM50 °FPassing clouds.2 mph54%29.12 "HgN/A
1:45 PM50 °FPassing clouds.5 mph54%29.12 "HgN/A
1:15 PM50 °FPassing clouds.5 mph50%29.12 "HgN/A
12:45 PM50 °FPassing clouds.7 mph58%29.12 "HgN/A
12:15 PM50 °FPassing clouds.9 mph62%29.12 "HgN/A
11:45 AM50 °FPassing clouds.9 mph62%29.12 "HgN/A
11:15 AM48 °FSunny.9 mph66%29.12 "Hg10 mi
10:45 AM48 °FSunny.10 mph66%29.12 "Hg10 mi
10:15 AM46 °FSunny.7 mph71%29.12 "Hg10 mi
9:45 AM45 °FSunny.8 mph76%29.12 "Hg10 mi
9:15 AM37 °FSunny.7 mph81%29.09 "Hg10 mi
8:45 AM37 °FSunny.8 mph87%29.09 "Hg10 mi
8:15 AM37 °FSunny.3 mph87%29.06 "Hg10 mi
7:45 AM34 °FSunny.5 mph93%29.06 "Hg10 mi
7:15 AM30 °FClear.6 mph100%29.06 "Hg10 mi
6:45 AM30 °FClear.No wind100%29.06 "Hg10 mi
6:45 PM
Jan 30
39 °FPassing clouds.8 mph87%28.94 "HgN/A
6:15 PM41 °FPassing clouds.18 mph81%28.91 "HgN/A
Weather by CustomWeather, © 2014

See weather overviewHow to use our weather pages